[[{"header":{"parameterUnit":"m.s-1","parameterCategory":1,"la1":30.2991,"la2":30.254,"lo1":-89.0895,"lo2":-89.0444,"dy":0.0017,"dx":0.0017,"nx":28,"ny":28,"refTime":"2024-03-26T21:00:00:Z","depth":0,"parameterNumber":2,"parameterNumberName":"U-component_of_WINDS"},"data":[0,0,0,0,0,0,0,0,0,0,0,0,0,0,0,0,0,0,0,0,0,0,0,0,0,0,0,0,0,0,0,0,0,0,0,0,0,0,0,0,0,0,0,0,0,0,0,0,0,0,0,0,0,0,0,0,0,0,-0.7772,-0.7771,0,-0.7737,-0.7737,-0.7737,-0.7715,-0.7715,-0.7715,-0.7715,-0.768,-0.7679,-0.7678,0,0,0,0,0,0,0,0,0,0,0,0,0,-0.7818,-0.7817,-0.7772,-0.7771,-0.7771,-0.7737,-0.7737,-0.7736,-0.7715,-0.7715,-0.7715,-0.7715,-0.768,-0.7679,-0.7678,0,0,0,0,0,0,0,0,0,0,0,0,0,-0.7792,-0.7817,-0.7772,-0.7756,-0.7755,-0.7737,-0.7737,-0.7736,-0.7715,-0.7715,-0.7715,-0.7715,-0.768,-0.7679,-0.7678,-0.7673,0,0,-0.7674,-0.7673,0,0,0,0,0,0,0,0,-0.7794,-0.7791,-0.7759,-0.7757,-0.7755,-0.773,-0.774,-0.7715,-0.7715,-0.773,-0.7715,-0.7715,-0.7697,-0.7694,-0.7688,-0.7672,-0.767,-0.7674,-0.7673,-0.7672,-0.7672,0,0,0,0,0,0,0,-0.7796,-0.7792,-0.7758,-0.7759,-0.7756,-0.7751,-0.7747,-0.7735,-0.7715,-0.7729,-0.7727,-0.7724,-0.7696,-0.7689,-0.7687,-0.767,-0.7674,-0.7673,-0.7672,-0.7671,-0.7646,-0.7646,0,0,0,0,0,0,-0.78,-0.7794,-0.7759,-0.7757,-0.7775,-0.775,-0.7746,-0.7739,-0.7715,-0.7711,-0.7724,-0.7723,-0.7691,-0.7688,-0.7686,-0.7678,-0.7672,-0.7671,-0.7671,-0.7646,-0.7646,-0.7646,0,0,0,0,0,0,-0.7801,-0.7797,-0.7761,-0.7775,-0.777,-0.7749,-0.7742,-0.7738,-0.7732,-0.7711,-0.7707,-0.7721,-0.7691,-0.7687,-0.7676,-0.7676,-0.7671,-0.767,-0.7646,-0.7646,-0.7646,-0.7663,0,0,0,0,0,0,-0.7802,-0.7798,-0.7796,-0.7775,-0.7769,-0.7752,-0.7742,-0.7737,-0.7729,-0.7728,-0.7707,-0.7704,-0.7691,-0.7678,-0.7675,-0.7674,-0.7669,-0.7646,-0.7646,-0.7646,-0.7662,-0.7664,-0.7665,0,0,0,0,0,-0.7804,-0.7802,-0.7796,-0.7792,-0.7767,-0.7752,-0.7749,-0.7734,-0.773,-0.7728,-0.7714,-0.7704,-0.7677,-0.7677,-0.7673,-0.7673,-0.7646,-0.7646,-0.7646,-0.7662,-0.7663,-0.7665,0,0,0,0,0,0,-0.7824,-0.78,-0.7792,-0.7784,-0.777,-0.7749,-0.7746,-0.7736,-0.7724,-0.7723,-0.7705,-0.77,-0.769,-0.768,-0.7681,-0.7666,-0.766,-0.7659,-0.7673,-0.7675,-0.7676,-0.7678,-0.7668,0,0,0,0,0,-0.7828,-0.7818,-0.7797,-0.7792,-0.7785,-0.7767,-0.776,-0.7749,-0.7735,-0.7729,-0.7714,-0.77,-0.7688,-0.7681,-0.7669,-0.766,-0.7655,-0.7658,-0.7659,-0.766,-0.766,-0.7654,-0.7654,-0.7647,-0.7647,-0.7647,0,0,-0.7835,-0.782,-0.7816,-0.7795,-0.7784,-0.7774,-0.7762,-0.7752,-0.7745,-0.7727,-0.7716,-0.7704,-0.7687,-0.7677,-0.7672,-0.7669,-0.7661,-0.766,-0.7662,-0.7661,-0.7654,-0.7655,-0.7655,-0.7647,-0.7647,-0.7647,0,0,-0.7843,-0.7831,-0.7825,-0.7813,-0.7795,-0.7783,-0.7781,-0.7761,-0.7752,-0.774,-0.7727,-0.7717,-0.7697,-0.7685,-0.7676,-0.7678,-0.7668,-0.7674,-0.7681,-0.7675,-0.7676,-0.7676,-0.7676,-0.7676,-0.7674,-0.7674,-0.7674,0,-0.7854,-0.7839,-0.7823,-0.7813,-0.7804,-0.7788,-0.7781,-0.777,-0.7749,-0.7743,-0.7739,-0.7713,-0.77,-0.7686,-0.7687,-0.768,-0.7677,-0.7677,-0.7677,-0.7677,-0.7677,-0.7677,-0.7677,-0.7675,-0.7675,-0.7675,-0.7675,0,-0.7853,-0.7843,-0.7839,-0.7819,-0.781,-0.7802,-0.7784,-0.7776,-0.7766,-0.7754,-0.7741,-0.7725,-0.7709,-0.7704,-0.7695,-0.7689,-0.7687,-0.768,-0.7674,-0.7679,-0.7678,-0.7678,-0.7676,-0.7676,-0.7676,-0.7675,0,0,-0.7874,-0.7844,-0.7843,-0.7833,-0.7812,-0.7803,-0.7793,-0.7777,-0.7771,-0.7756,-0.7747,-0.773,-0.7723,-0.7713,-0.7702,-0.7697,-0.7698,-0.769,-0.7689,-0.7692,-0.7689,-0.7694,-0.7694,-0.7691,-0.7691,-0.7691,-0.769,0,-0.7878,-0.7861,-0.7845,-0.7833,-0.7823,-0.7806,-0.7797,-0.7783,-0.7771,-0.7759,-0.7746,-0.7733,-0.7726,-0.7719,-0.7713,-0.7699,-0.7697,-0.7699,-0.7682,-0.7682,-0.7687,-0.7694,-0.77,-0.77,-0.769,-0.769,-0.769,0,-0.7881,-0.7867,-0.7854,-0.7832,-0.7827,-0.782,-0.7803,-0.7793,-0.7776,-0.7767,-0.7755,-0.7743,-0.7731,-0.7726,-0.7709,-0.7711,-0.7703,-0.7694,-0.7694,-0.7692,-0.7686,-0.7692,-0.77,-0.77,-0.7689,-0.7689,-0.7689,0,-0.7897,-0.7875,-0.7864,-0.7856,-0.7831,-0.7826,-0.7815,-0.7797,-0.7788,-0.7773,-0.7767,-0.7751,-0.7742,-0.773,-0.7713,-0.7711,-0.7697,-0.7691,-0.7689,-0.769,-0.7688,-0.7688,-0.7694,-0.7683,-0.7683,-0.7683,-0.7683,0,-0.7904,-0.7896,-0.787,-0.7864,-0.7854,-0.7836,-0.7827,-0.7814,-0.7799,-0.7789,-0.7773,-0.7764,-0.7742,-0.773,-0.7717,-0.7705,-0.7701,-0.7693,-0.769,-0.7694,-0.7695,-0.7689,-0.7688,-0.7683,-0.7683,-0.7683,-0.7683,0,-0.792,-0.7903,-0.7889,-0.7866,-0.7859,-0.7854,-0.7833,-0.7825,-0.7812,-0.7799,-0.7795,-0.7774,-0.7758,-0.774,-0.772,-0.7711,-0.7699,-0.7694,-0.7705,-0.7703,-0.7702,-0.7702,-0.7705,-0.7703,-0.7693,-0.7694,-0.7694,0,-0.7925,-0.7919,-0.7894,-0.7886,-0.7876,-0.7863,-0.7854,-0.7835,-0.7825,-0.7804,-0.7799,-0.7782,-0.7768,-0.7744,-0.7727,-0.771,-0.7705,-0.7706,-0.7702,-0.7707,-0.7704,-0.7704,-0.7703,-0.7708,-0.7708,-0.7708,-0.7708,0,-0.7936,-0.7927,-0.7914,-0.7897,-0.7886,-0.7872,-0.7857,-0.7852,-0.7829,-0.7819,-0.7803,-0.7792,-0.777,-0.7754,-0.7735,-0.7723,-0.7712,-0.771,-0.7708,-0.7713,-0.7719,-0.7715,-0.7708,-0.771,-0.771,-0.7709,-0.7709,-0.7709,-0.7947,-0.794,-0.7921,-0.7906,-0.7893,-0.7879,-0.7871,-0.7855,-0.7842,-0.7823,-0.7812,-0.7796,-0.7777,-0.7751,-0.7739,-0.7726,-0.7722,-0.772,-0.772,-0.7719,-0.7721,-0.7721,-0.7722,-0.7722,-0.7722,-0.7722,-0.7722,0,-0.7956,-0.7943,-0.793,-0.7909,-0.7897,-0.7887,-0.787,-0.7861,-0.7847,-0.783,-0.7816,-0.7797,-0.7781,-0.7761,-0.7744,-0.7737,-0.7731,-0.7733,-0.7733,-0.773,-0.7725,-0.7728,-0.7737,-0.7737,-0.7737,-0.7737,-0.7737,-0.7737,-0.796,-0.7947,-0.7936,-0.7917,-0.7903,-0.7888,-0.7878,-0.7865,-0.7852,-0.7831,-0.7817,-0.7805,-0.7786,-0.7767,-0.7751,-0.7746,-0.7739,-0.7743,-0.7736,-0.7732,-0.773,-0.7729,-0.7732,-0.7742,-0.7742,-0.7741,-0.7741,-0.7741]},{"header":{"parameterUnit":"m.s-1","parameterCategory":1,"la1":30.2991,"la2":30.254,"lo1":-89.0895,"lo2":-89.0444,"dy":0.0017,"dx":0.0017,"nx":28,"ny":28,"refTime":"2024-03-26T21:00:00:Z","depth":0,"parameterNumber":3,"parameterNumberName":"V-component_of_WINDS"},"data":[0,0,0,0,0,0,0,0,0,0,0,0,0,0,0,0,0,0,0,0,0,0,0,0,0,0,0,0,0,0,0,0,0,0,0,0,0,0,0,0,0,0,0,0,0,0,0,0,0,0,0,0,0,0,0,0,0,0,-4.1994,-4.1995,0,-4.2058,-4.2058,-4.2059,-4.2095,-4.2095,-4.2095,-4.2095,-4.2155,-4.2156,-4.2158,0,0,0,0,0,0,0,0,0,0,0,0,0,-4.1901,-4.1903,-4.1994,-4.1995,-4.1996,-4.2057,-4.2058,-4.2059,-4.2095,-4.2095,-4.2095,-4.2095,-4.2154,-4.2156,-4.2158,0,0,0,0,0,0,0,0,0,0,0,0,0,-4.1951,-4.1903,-4.1994,-4.2021,-4.2024,-4.2057,-4.2058,-4.2059,-4.2095,-4.2095,-4.2095,-4.2095,-4.2154,-4.2156,-4.2158,-4.2167,0,0,-4.2165,-4.2166,0,0,0,0,0,0,0,0,-4.1948,-4.1954,-4.2016,-4.2019,-4.2023,-4.2069,-4.2048,-4.2095,-4.2095,-4.2068,-4.2095,-4.2095,-4.2126,-4.213,-4.2141,-4.217,-4.2173,-4.2165,-4.2166,-4.2167,-4.2168,0,0,0,0,0,0,0,-4.1944,-4.1952,-4.2019,-4.2017,-4.2021,-4.2029,-4.2036,-4.2057,-4.2095,-4.207,-4.2073,-4.208,-4.2127,-4.2139,-4.2143,-4.2174,-4.2165,-4.2167,-4.2168,-4.2169,-4.2216,-4.2216,0,0,0,0,0,0,-4.1937,-4.1948,-4.2017,-4.2021,-4.1985,-4.2031,-4.2039,-4.2054,-4.2095,-4.2101,-4.208,-4.2082,-4.2135,-4.214,-4.2145,-4.2161,-4.2167,-4.2169,-4.217,-4.2216,-4.2216,-4.2216,0,0,0,0,0,0,-4.1935,-4.1943,-4.2015,-4.1986,-4.1995,-4.2032,-4.2048,-4.2055,-4.2067,-4.2102,-4.2108,-4.2085,-4.2136,-4.2142,-4.2163,-4.2163,-4.217,-4.2172,-4.2216,-4.2216,-4.2216,-4.219,0,0,0,0,0,0,-4.1932,-4.1942,-4.1947,-4.1986,-4.1997,-4.2032,-4.2048,-4.2056,-4.2071,-4.2074,-4.2109,-4.2115,-4.2136,-4.2159,-4.2165,-4.2166,-4.2174,-4.2216,-4.2216,-4.2216,-4.2191,-4.2189,-4.2188,0,0,0,0,0,-4.1929,-4.1935,-4.1947,-4.1955,-4.2003,-4.2032,-4.2038,-4.2064,-4.2071,-4.2075,-4.2099,-4.2114,-4.2162,-4.2161,-4.2168,-4.217,-4.2216,-4.2216,-4.2216,-4.2192,-4.219,-4.2188,0,0,0,0,0,0,-4.1893,-4.1941,-4.1954,-4.1973,-4.1999,-4.2038,-4.2044,-4.2061,-4.2083,-4.2084,-4.2115,-4.2122,-4.214,-4.2157,-4.2154,-4.2182,-4.2191,-4.2192,-4.217,-4.2169,-4.2167,-4.2162,-4.2176,0,0,0,0,0,-4.1888,-4.1908,-4.1948,-4.1961,-4.1973,-4.2007,-4.202,-4.2038,-4.2065,-4.2075,-4.2099,-4.2123,-4.2145,-4.2157,-4.2178,-4.2194,-4.2203,-4.2199,-4.2197,-4.2196,-4.2196,-4.2207,-4.2206,-4.2215,-4.2215,-4.2215,0,0,-4.1876,-4.1905,-4.1915,-4.1955,-4.1976,-4.1996,-4.2015,-4.2034,-4.2049,-4.2077,-4.2099,-4.2118,-4.2147,-4.2165,-4.2175,-4.218,-4.2196,-4.2195,-4.2194,-4.2195,-4.2207,-4.2206,-4.2205,-4.2215,-4.2215,-4.2215,0,0,-4.1865,-4.1889,-4.1903,-4.1926,-4.1959,-4.1982,-4.1985,-4.2023,-4.2037,-4.206,-4.2082,-4.21,-4.2135,-4.2155,-4.217,-4.217,-4.2185,-4.2176,-4.2166,-4.2177,-4.2176,-4.2176,-4.2177,-4.2177,-4.2176,-4.2176,-4.2176,0,-4.1846,-4.1878,-4.1908,-4.1928,-4.1945,-4.1974,-4.1989,-4.2008,-4.2046,-4.2057,-4.2063,-4.2109,-4.213,-4.2155,-4.2156,-4.2166,-4.2171,-4.2172,-4.2174,-4.2174,-4.2174,-4.2175,-4.2175,-4.2175,-4.2175,-4.2175,-4.2175,0,-4.1853,-4.1875,-4.1883,-4.1922,-4.194,-4.1956,-4.1989,-4.2003,-4.2021,-4.2042,-4.2066,-4.2093,-4.2121,-4.2128,-4.2144,-4.2156,-4.2158,-4.2169,-4.2178,-4.2171,-4.2173,-4.2174,-4.2173,-4.2174,-4.2174,-4.2174,0,0,-4.1819,-4.1878,-4.188,-4.1899,-4.1939,-4.1956,-4.1975,-4.2005,-4.2017,-4.2042,-4.2059,-4.2089,-4.21,-4.2117,-4.2136,-4.2145,-4.2145,-4.2155,-4.2156,-4.2152,-4.2161,-4.2153,-4.2153,-4.2155,-4.2156,-4.2156,-4.2159,0,-4.1815,-4.1852,-4.1881,-4.1906,-4.1927,-4.1957,-4.1973,-4.1999,-4.202,-4.2041,-4.2063,-4.2085,-4.2097,-4.2108,-4.2119,-4.2143,-4.2147,-4.2143,-4.217,-4.2171,-4.2163,-4.2154,-4.2145,-4.2146,-4.2159,-4.2159,-4.2159,0,-4.1814,-4.1842,-4.187,-4.1911,-4.1921,-4.1935,-4.1966,-4.1985,-4.2016,-4.2031,-4.2051,-4.2072,-4.2092,-4.21,-4.2129,-4.2126,-4.2139,-4.2153,-4.2153,-4.2157,-4.2165,-4.2157,-4.2147,-4.2147,-4.2161,-4.2161,-4.216,0,-4.1788,-4.1832,-4.1855,-4.187,-4.1918,-4.1928,-4.1948,-4.1979,-4.1996,-4.2022,-4.2034,-4.2061,-4.2076,-4.2097,-4.2124,-4.2127,-4.2151,-4.2161,-4.2164,-4.2163,-4.2167,-4.2166,-4.2159,-4.2175,-4.2175,-4.2175,-4.2175,0,-4.178,-4.1796,-4.1845,-4.1859,-4.1878,-4.1912,-4.193,-4.1952,-4.198,-4.1999,-4.2025,-4.2041,-4.2076,-4.2097,-4.2118,-4.214,-4.2146,-4.2159,-4.2164,-4.2157,-4.2155,-4.2165,-4.2166,-4.2175,-4.2175,-4.2175,-4.2175,0,-4.1754,-4.1787,-4.1814,-4.1859,-4.187,-4.1883,-4.192,-4.1935,-4.1959,-4.1982,-4.199,-4.2026,-4.2053,-4.2082,-4.2117,-4.2132,-4.2152,-4.2159,-4.2142,-4.2145,-4.2147,-4.2147,-4.2146,-4.2148,-4.2162,-4.2162,-4.2162,0,-4.1746,-4.176,-4.1807,-4.1823,-4.1843,-4.1868,-4.1886,-4.192,-4.1937,-4.1975,-4.1985,-4.2014,-4.2039,-4.2079,-4.2108,-4.2136,-4.2144,-4.2143,-4.2148,-4.2141,-4.2145,-4.2145,-4.2147,-4.2141,-4.214,-4.214,-4.214,0,-4.1731,-4.1747,-4.1774,-4.1807,-4.1828,-4.1855,-4.1883,-4.1894,-4.1933,-4.1951,-4.198,-4.1999,-4.2037,-4.2065,-4.2097,-4.2117,-4.2135,-4.2138,-4.214,-4.2133,-4.2123,-4.2129,-4.2138,-4.2138,-4.2138,-4.2138,-4.2138,-4.2138,-4.1714,-4.1729,-4.1765,-4.1794,-4.1819,-4.1845,-4.1862,-4.189,-4.1915,-4.195,-4.1968,-4.1996,-4.2028,-4.2073,-4.2092,-4.2115,-4.212,-4.2123,-4.2124,-4.2125,-4.2123,-4.2119,-4.212,-4.212,-4.212,-4.2121,-4.2121,0,-4.1701,-4.1726,-4.1753,-4.1793,-4.1816,-4.1834,-4.1866,-4.1883,-4.1909,-4.1938,-4.1963,-4.1997,-4.2025,-4.2057,-4.2088,-4.2099,-4.2108,-4.2106,-4.2105,-4.211,-4.2116,-4.2111,-4.2098,-4.2098,-4.2098,-4.2098,-4.2098,-4.2098,-4.1696,-4.1723,-4.1744,-4.1783,-4.1808,-4.1838,-4.1855,-4.1879,-4.1903,-4.1941,-4.1965,-4.1987,-4.2018,-4.2051,-4.2078,-4.2087,-4.2097,-4.2092,-4.2103,-4.2107,-4.2109,-4.2111,-4.2107,-4.2094,-4.2094,-4.2096,-4.2096,-4.2096]}]]